Powrót do katalogu

STARLINK-32417

AktywnyŁącznośćVLEO
NORAD 61673·PAYLOAD·🇺🇸 United States

Wystrzelony Oct 26, 2024 z Cape Canaveral Space Force Station

Loading…

Następne Przeloty (najbliższe 24 godziny)

TLE

ŚwieżeSource: CelesTrak SupGP

Epoka: Sep 14, 2026, 22:50 UTC

1 61673C 24193N   26257.95187500  .00053003  00000+0  17047-2 0  2577
2 61673  53.1586 290.6205 0001134  93.3614 193.5812 15.31669882    11

Śledź STARLINK-32417 w czasie rzeczywistym z AllMySat

Download on the App Store